Powrót do katalogu

FENGYUN 1C DEB

AktywnySSO
NORAD 30144·DEBRIS·🇨🇳 China

Wystrzelony May 10, 1999 z Taiyuan Satellite Launch Center

Loading…

Następne Przeloty (najbliższe 24 godziny)

TLE

ŚwieżeSource: Space-Track

Epoka: Sep 14, 2026, 11:01 UTC

1 30144U 99025SZ  26257.45949428  .00000280  00000-0  23757-3 0  9991
2 30144  99.0290 247.8239 0124734 259.2234 254.9676 13.92137487996767

Śledź FENGYUN 1C DEB w czasie rzeczywistym z AllMySat

Download on the App Store